Location: Baia Mare
(47.6567°N, 23.5850°E)
Time: 20:01:24
(UTC+03:00)

ISS - Pass Details

Date: 05 November 2018
Orbit: 403 x 408 km, 51.6° (Epoch: 23 October)

Event Time Altitude Azimuth Distance (km) Brightness Sun altitude
Exits shadow 04:56:47 31° 43° (NE) 746 -2.1 -23.6°
Drops below altitude 10° 04:58:47 10° 64° (ENE) 1,465 -0.1 -23.3°
Sets 05:00:56 0° 70° (ENE) 2,327 1.3 -22.9°
